FW5744 Carteret NJ US current weather conditions

sailwx.info

Wind from 216 at 0 knots gusting 2

Air temperature 12.2° C
Dewpoint 8.1° C

Last reported at 2019-Oct-16 02:01 UTC.
Time now 2019-Oct-16 02:43 UTC

Location: N 40°35' W 074°14'.
View on Google Maps.

See reports from other nearby stations

  
Tides and Currents Weather Stations Pressure Air Temp Water Temp Dewpoint Dewpoint Depression Visibility Wind Speed Wind Dir Waves Ship Positions
date/time (UTC)wind fromknots sea level pressurealtimeterstation pressurevisibilityair tempwater tempwave heightnotes
2019-Oct-16 02:01 216 0 gusting 2 12.2
2019-Oct-16 01:55 216 0 gusting 2 12.2
2019-Oct-16 01:50 162 12.2
2019-Oct-16 01:46 162 12.2
2019-Oct-16 01:40 163 12.2
2019-Oct-16 01:35 164 12.2
2019-Oct-16 01:31 162 12.2
2019-Oct-16 01:25 162 12.2
2019-Oct-16 01:20 162 12.2
2019-Oct-16 01:16 162 12.2
2019-Oct-16 01:10 167 12.2
2019-Oct-16 01:05 166 0 gusting 3 12.2
2019-Oct-16 01:00 196 12.8
2019-Oct-16 00:55 195 1 gusting 3 12.8
2019-Oct-16 00:50 173 0 gusting 2 12.8
2019-Oct-16 00:45 171 0 gusting 3 12.8
2019-Oct-16 00:40 171 12.8
2019-Oct-16 00:35 162 12.8
2019-Oct-16 00:31 135 12.8
2019-Oct-16 00:25 189 0 gusting 4 12.8
2019-Oct-16 00:20 171 1 gusting 4 12.8
2019-Oct-16 00:16 142 0 gusting 2 12.8
2019-Oct-16 00:10 166 0 gusting 3 13.3
2019-Oct-16 00:05 135 0 gusting 4 13.3
2019-Oct-16 00:00 177 0 gusting 5 13.3
2019-Oct-15 23:55 168 1 gusting 5 13.3
2019-Oct-15 23:50 186 1 gusting 3 13.3
2019-Oct-15 23:46 234 0 gusting 5 13.3
2019-Oct-15 23:40 181 1 gusting 5 13.3
2019-Oct-15 23:35 179 1 gusting 5 13.3
2019-Oct-15 23:31 140 0 gusting 5 13.9
2019-Oct-15 23:25 177 1 gusting 5 13.9
2019-Oct-15 23:20 150 1 gusting 4 13.9
2019-Oct-15 23:15 159 1 gusting 5 13.9
2019-Oct-15 23:10 197 1 gusting 6 13.9
2019-Oct-15 23:05 183 2 gusting 6 13.9
2019-Oct-15 23:01 147 2 gusting 6 13.9
2019-Oct-15 22:55 171 2 gusting 6 14.4
2019-Oct-15 22:50 174 1 gusting 6 14.4
2019-Oct-15 22:46 152 1 gusting 6 14.4
2019-Oct-15 22:40 188 2 gusting 5 14.4
2019-Oct-15 22:35 168 1 gusting 7 14.4
2019-Oct-15 22:31 195 2 gusting 5 15.0
2019-Oct-15 22:25 177 1 gusting 5 15.0
2019-Oct-15 22:20 097 1 gusting 6 15.0
2019-Oct-15 22:15 158 2 gusting 9 15.0
2019-Oct-15 22:10 143 1 gusting 9 15.6
2019-Oct-15 22:05 164 1 gusting 6 15.6
2019-Oct-15 22:01 112 2 gusting 7 16.1
2019-Oct-15 21:55 186 1 gusting 6 16.7
2019-Oct-15 21:50 107 3 gusting 6 16.7
2019-Oct-15 21:45 201 1 gusting 6 17.2
2019-Oct-15 21:40 113 2 gusting 6 17.2
2019-Oct-15 21:35 185 1 gusting 6 17.8
2019-Oct-15 21:31 186 1 gusting 5 17.8
2019-Oct-15 21:25 202 1 gusting 4 17.8
2019-Oct-15 21:20 216 1 gusting 4 17.8
2019-Oct-15 21:15 146 0 gusting 5 17.8
2019-Oct-15 21:10 147 1 gusting 5 17.8
2019-Oct-15 21:05 123 1 gusting 4 17.8
2019-Oct-15 21:00 155 1 gusting 4 17.8
2019-Oct-15 20:55 181 0 gusting 4 18.3
2019-Oct-15 20:50 176 1 gusting 5 18.3
2019-Oct-15 20:45 174 0 gusting 6 18.3
2019-Oct-15 20:40 202 1 gusting 6 18.3
2019-Oct-15 20:35 162 0 gusting 6 18.3
2019-Oct-15 20:30 214 18.3
2019-Oct-15 20:25 222 0 gusting 4 18.3
2019-Oct-15 20:20 266 0 gusting 6 18.3
2019-Oct-15 20:16 194 2 gusting 6 18.3
2019-Oct-15 20:10 239 1 gusting 5 18.3
2019-Oct-15 20:05 235 1 gusting 6 18.3
2019-Oct-15 20:00 201 1 gusting 6 18.3
2019-Oct-15 19:55 171 0 gusting 3 18.3
2019-Oct-15 19:50 318 0 gusting 5 18.3
2019-Oct-15 19:40 177 2 gusting 5 18.3
2019-Oct-15 19:31 262 2 gusting 5 18.3
2019-Oct-15 19:25 193 2 gusting 6 17.8
2019-Oct-15 19:20 145 2 gusting 6 17.8
2019-Oct-15 19:10 160 1 gusting 8 17.2
2019-Oct-15 19:00 172 2 gusting 7 17.8
2019-Oct-15 18:55 177 2 gusting 8 17.8
2019-Oct-15 18:45 132 0 gusting 5 17.8
2019-Oct-15 18:40 060 0 gusting 7 17.2
2019-Oct-15 18:35 135 2 gusting 7 17.8
2019-Oct-15 18:25 055 0 gusting 4 17.8
2019-Oct-15 18:20 315 0 gusting 6 17.8
2019-Oct-15 18:10 290 2 gusting 6 17.8
2019-Oct-15 18:05 291 0 gusting 6 17.8
2019-Oct-15 18:00 170 1 gusting 6 17.8
2019-Oct-15 17:55 230 2 gusting 6 17.8
2019-Oct-15 17:50 235 0 gusting 3 17.8
2019-Oct-15 17:45 289 17.2
2019-Oct-15 17:40 204 1 gusting 4 17.2
2019-Oct-15 17:35 077 1 gusting 5 17.2
2019-Oct-15 17:25 182 1 gusting 3 17.2
2019-Oct-15 17:20 266 1 gusting 3 16.7
2019-Oct-15 17:15 305 0 gusting 3 16.7
2019-Oct-15 17:10 058 1 gusting 3 16.1
2019-Oct-15 17:05 033 0 gusting 6 16.1
2019-Oct-15 17:00 205 2 gusting 6 16.7
2019-Oct-15 16:55 249 2 gusting 6 16.1
2019-Oct-15 16:50 318 1 gusting 6 16.7
2019-Oct-15 16:45 080 1 gusting 5 16.7
2019-Oct-15 16:40 008 0 gusting 4 16.7
2019-Oct-15 16:32 288 0 gusting 4 16.7
2019-Oct-15 16:26 020 1 gusting 6 16.7
2019-Oct-15 16:20 268 2 gusting 6 16.7
2019-Oct-15 16:17 296 0 gusting 4 16.1
2019-Oct-15 16:11 080 0 gusting 7 16.7
2019-Oct-15 16:06 037 2 gusting 7 16.1
2019-Oct-15 16:02 359 3 gusting 7 16.1
2019-Oct-15 15:56 208 2 gusting 6 16.1
2019-Oct-15 15:51 259 2 gusting 6 16.1
2019-Oct-15 15:46 022 1 gusting 4 16.1
2019-Oct-15 15:40 329 0 gusting 5 16.1
2019-Oct-15 15:36 276 2 gusting 7 15.6
2019-Oct-15 15:32 308 2 gusting 7 16.1
2019-Oct-15 15:25 012 0 gusting 6 15.6
2019-Oct-15 15:20 266 1 gusting 7 15.6
2019-Oct-15 15:16 306 2 gusting 7 15.6
2019-Oct-15 15:10 176 1 gusting 6 15.0
2019-Oct-15 15:05 046 2 gusting 5 15.0
2019-Oct-15 15:01 328 0 gusting 5 15.0
2019-Oct-15 14:55 310 3 gusting 5 15.0
2019-Oct-15 14:50 314 1 gusting 7 15.6
2019-Oct-15 14:46 062 1 gusting 6 15.0
2019-Oct-15 14:40 262 0 gusting 6 15.0
2019-Oct-15 14:35 267 3 gusting 6 14.4
2019-Oct-15 14:31 305 1 gusting 7 14.4
2019-Oct-15 14:25 306 4 gusting 7 14.4
2019-Oct-15 14:20 004 1 gusting 4 14.4
2019-Oct-15 14:17 268 1 gusting 6 14.4
2019-Oct-15 14:10 326 1 gusting 6 14.4
2019-Oct-15 14:05 359 1 gusting 6 13.9
2019-Oct-15 14:00 008 1 gusting 6 13.9
2019-Oct-15 13:55 300 2 gusting 5 13.9
2019-Oct-15 13:50 324 1 gusting 5 13.9
2019-Oct-15 13:46 311 1 gusting 5 13.3
2019-Oct-15 13:40 285 2 gusting 5 13.3
2019-Oct-15 13:35 309 13.3
2019-Oct-15 13:31 276 0 gusting 4 12.8
2019-Oct-15 13:25 316 0 gusting 5 12.8
2019-Oct-15 13:20 308 0 gusting 4 12.2
2019-Oct-15 13:17 308 0 gusting 4 12.2
2019-Oct-15 13:10 310 1 gusting 5 12.2
2019-Oct-15 13:05 359 3 gusting 6 11.7
2019-Oct-15 13:01 286 2 gusting 6 11.7
2019-Oct-15 12:55 322 0 gusting 3 11.7
2019-Oct-15 12:50 354 0 gusting 5 11.1
2019-Oct-15 12:46 316 2 gusting 6 11.1
2019-Oct-15 12:40 332 2 gusting 6 11.1
2019-Oct-15 12:35 310 0 gusting 6 10.6
2019-Oct-15 12:30 325 1 gusting 5 10.6
2019-Oct-15 12:25 308 0 gusting 3 10.6
2019-Oct-15 12:20 304 0 gusting 4 10.0
2019-Oct-15 12:16 316 1 gusting 4 10.0
2019-Oct-15 12:10 319 1 gusting 4 9.4
2019-Oct-15 12:05 287 2 gusting 4 9.4
2019-Oct-15 12:01 321 1 gusting 3 8.9
2019-Oct-15 11:55 273 0 gusting 2 8.9
2019-Oct-15 11:50 273 0 gusting 3 8.9
2019-Oct-15 11:46 359 0 gusting 3 8.9
2019-Oct-15 11:40 292 0 gusting 3 8.9
2019-Oct-15 11:35 293 0 gusting 3 8.9
2019-Oct-15 11:31 288 0 gusting 2 8.9
2019-Oct-15 11:25 302 0 gusting 3 8.9
2019-Oct-15 11:20 294 1 gusting 3 8.9
2019-Oct-15 11:16 271 0 gusting 4 8.9
2019-Oct-15 11:10 297 0 gusting 2 8.9
2019-Oct-15 11:05 285 8.9
2019-Oct-15 11:01 310 9.4
2019-Oct-15 10:55 289 0 gusting 2 9.4
2019-Oct-15 10:50 299 0 gusting 5 9.4
2019-Oct-15 10:45 289 1 gusting 5 9.4
2019-Oct-15 10:40 281 0 gusting 3 9.4
2019-Oct-15 10:35 293 1 gusting 3 9.4
2019-Oct-15 10:30 296 0 gusting 2 10.0
2019-Oct-15 10:25 290 0 gusting 3 10.0
2019-Oct-15 10:20 310 1 gusting 4 10.0
2019-Oct-15 10:16 310 1 gusting 5 10.0
2019-Oct-15 10:10 303 1 gusting 5 10.0
2019-Oct-15 10:05 359 2 gusting 4 10.0
2019-Oct-15 10:00 307 1 gusting 4 10.0
2019-Oct-15 09:55 293 1 gusting 4 10.0
2019-Oct-15 09:50 265 0 gusting 1 10.0
2019-Oct-15 09:45 320 10.0
2019-Oct-15 09:40 359 10.0
2019-Oct-15 09:35 316 0 gusting 2 10.6
2019-Oct-15 09:25 303 1 gusting 4 10.6
2019-Oct-15 09:20 359 1 gusting 4 10.6
2019-Oct-15 09:15 302 1 gusting 3 10.6
2019-Oct-15 09:10 320 1 gusting 3 10.6
2019-Oct-15 09:05 302 0 gusting 2 10.6
2019-Oct-15 08:55 304 1 gusting 4 10.6
2019-Oct-15 08:50 324 1 gusting 3 10.6
2019-Oct-15 08:40 296 0 gusting 3 10.6
2019-Oct-15 08:35 299 1 gusting 3 10.6
2019-Oct-15 08:25 324 0 gusting 2 10.6
2019-Oct-15 08:20 305 0 gusting 2 10.6
2019-Oct-15 08:15 305 0 gusting 2 10.6
2019-Oct-15 08:10 023 10.6
2019-Oct-15 08:05 023 11.1
2019-Oct-15 08:00 023 11.1
2019-Oct-15 07:55 023 11.1
2019-Oct-15 07:46 023 0 gusting 2 11.1
2019-Oct-15 07:41 043 11.1
2019-Oct-15 07:36 024 11.1
2019-Oct-15 07:32 023 0 gusting 2 11.7
2019-Oct-15 07:26 012 11.7
2019-Oct-15 07:20 009 0 gusting 2 11.7
2019-Oct-15 07:17 036 11.7
2019-Oct-15 07:11 035 11.7
2019-Oct-15 07:06 312 11.7
2019-Oct-15 07:01 310 12.2
2019-Oct-15 06:55 314 0 gusting 2 12.2
2019-Oct-15 06:51 319 0 gusting 2 12.2
2019-Oct-15 06:47 329 0 gusting 2 12.2
2019-Oct-15 06:40 315 0 gusting 3 12.2
2019-Oct-15 06:35 314 1 gusting 4 12.2
2019-Oct-15 06:32 315 0 gusting 5 12.8
2019-Oct-15 06:25 311 1 gusting 5 12.8
2019-Oct-15 06:20 329 0 gusting 4 12.8
2019-Oct-15 06:17 037 0 gusting 3 12.8
2019-Oct-15 06:10 027 1 gusting 5 12.8
2019-Oct-15 06:05 018 0 gusting 5 12.8
2019-Oct-15 06:01 035 1 gusting 6 12.8
2019-Oct-15 05:55 015 0 gusting 6 12.8
2019-Oct-15 05:50 048 1 gusting 4 12.8
2019-Oct-15 05:47 029 0 gusting 3 12.8
2019-Oct-15 05:40 318 0 gusting 3 12.8
2019-Oct-15 05:35 021 0 gusting 4 12.8
2019-Oct-15 05:31 026 1 gusting 3 12.8
2019-Oct-15 05:25 354 0 gusting 2 12.8
2019-Oct-15 05:20 030 12.8
2019-Oct-15 05:16 359 13.3
2019-Oct-15 05:10 343 0 gusting 3 13.3
2019-Oct-15 05:05 015 13.3
2019-Oct-15 05:01 359 0 gusting 2 13.3
2019-Oct-15 04:55 297 0 gusting 4 13.9
2019-Oct-15 04:50 354 1 gusting 5 13.9
2019-Oct-15 04:46 359 0 gusting 5 13.9
2019-Oct-15 04:40 320 2 gusting 5 13.9
2019-Oct-15 04:35 359 0 gusting 4 13.9
2019-Oct-15 04:30 316 1 gusting 5 13.9
2019-Oct-15 04:25 330 1 gusting 5 14.4
2019-Oct-15 04:20 025 14.4
2019-Oct-15 04:15 025 1 gusting 7 14.4
2019-Oct-15 04:10 317 3 gusting 7 14.4
2019-Oct-15 04:05 297 1 gusting 6 14.4
2019-Oct-15 04:01 307 1 gusting 5 14.4
2019-Oct-15 03:55 317 1 gusting 5 14.4
2019-Oct-15 03:50 308 0 gusting 5 14.4
2019-Oct-15 03:45 316 2 gusting 4 14.4
2019-Oct-15 03:40 303 1 gusting 5 15.0
2019-Oct-15 03:35 359 1 gusting 5 15.0
2019-Oct-15 03:30 298 0 gusting 3 14.4
2019-Oct-15 03:25 315 0 gusting 3 15.0
2019-Oct-15 03:20 278 1 gusting 3 15.0
2019-Oct-15 03:16 281 0 gusting 1 15.0
2019-Oct-15 03:10 305 0 gusting 2 15.0
2019-Oct-15 03:05 272 0 gusting 3 15.0
2019-Oct-15 03:01 304 0 gusting 3 15.6
2019-Oct-15 02:55 276 0 gusting 3 15.6
2019-Oct-15 02:50 301 1 gusting 3 15.6
2019-Oct-15 02:46 305 1 gusting 3 15.6
2019-Oct-15 02:40 297 1 gusting 4 15.6
2019-Oct-15 02:35 297 1 gusting 5 15.6
2019-Oct-15 02:25 283 0 gusting 5 16.1
2019-Oct-15 02:15 305 1 gusting 4 16.1
2019-Oct-15 02:10 292 1 gusting 4 15.6
2019-Oct-15 02:05 276 1 gusting 3 15.6
2019-Oct-15 01:55 290 0 gusting 2 15.6
2019-Oct-15 01:50 276 15.6
2019-Oct-15 01:40 277 15.6
2019-Oct-15 01:35 277 16.1
2019-Oct-15 01:30 277 16.1
2019-Oct-15 01:25 276 0 gusting 1 16.1
2019-Oct-15 01:20 295 16.1
2019-Oct-15 01:10 323 16.1
2019-Oct-15 01:05 324 1 gusting 2 16.1
2019-Oct-15 00:55 257 16.1
2019-Oct-15 00:50 257 16.7
2019-Oct-15 00:40 257 17.2
2019-Oct-15 00:30 257 17.8
2019-Oct-15 00:25 257 17.8
2019-Oct-15 00:15 257 18.3
2019-Oct-15 00:10 293 18.3
2019-Oct-15 00:05 275 0 gusting 2 18.3
2019-Oct-15 00:00 259 18.3
2019-Oct-14 23:55 259 18.9
2019-Oct-14 23:50 305 18.9
2019-Oct-14 23:40 276 1 gusting 4 19.4
2019-Oct-14 23:35 285 1 gusting 7 19.4
2019-Oct-14 23:30 235 2 gusting 6 19.4
2019-Oct-14 23:25 260 1 gusting 7 19.4
2019-Oct-14 23:20 268 2 gusting 10 19.4
2019-Oct-14 23:10 295 1 gusting 8 20.0
2019-Oct-14 23:00 287 4 gusting 9 20.0
2019-Oct-14 22:55 285 4 gusting 8 20.0
2019-Oct-14 22:50 256 3 gusting 9 20.0
2019-Oct-14 22:40 285 3 gusting 9 20.6
2019-Oct-14 22:35 302 2 gusting 9 20.6
2019-Oct-14 22:30 307 3 gusting 9 20.6
2019-Oct-14 22:25 264 2 gusting 9 20.6
2019-Oct-14 22:20 263 4 gusting 10 20.6
2019-Oct-14 22:15 268 4 gusting 10 21.1
2019-Oct-14 22:10 275 3 gusting 13 21.1
2019-Oct-14 22:05 261 6 gusting 13 21.1
2019-Oct-14 22:00 272 6 gusting 13 21.1
2019-Oct-14 21:55 296 6 gusting 13 21.7
2019-Oct-14 21:50 276 5 gusting 13 21.7
2019-Oct-14 21:45 319 7 gusting 13 21.7
2019-Oct-14 21:40 287 5 gusting 13 22.2
2019-Oct-14 21:35 261 5 gusting 11 22.2
2019-Oct-14 21:30 277 5 gusting 11 22.8
2019-Oct-14 21:25 287 3 gusting 11 22.8
2019-Oct-14 21:20 243 4 gusting 11 22.8
2019-Oct-14 21:15 236 1 gusting 9 22.8
2019-Oct-14 21:10 256 2 gusting 10 22.8
2019-Oct-14 21:05 226 1 gusting 13 22.8
2019-Oct-14 21:00 249 4 gusting 12 23.3
2019-Oct-14 20:55 282 4 gusting 9 23.3
2019-Oct-14 20:50 270 4 gusting 10 22.8
2019-Oct-14 20:45 243 4 gusting 13 22.8
2019-Oct-14 20:40 291 6 gusting 12 22.8
2019-Oct-14 20:35 299 5 gusting 12 23.3
2019-Oct-14 20:30 273 7 gusting 12 23.3
2019-Oct-14 20:25 251 4 gusting 12 23.3
2019-Oct-14 20:20 331 3 gusting 13 23.3
2019-Oct-14 20:15 249 6 gusting 14 23.3
2019-Oct-14 20:10 253 6 gusting 14 23.3
2019-Oct-14 20:02 248 3 gusting 12 23.3
2019-Oct-14 19:55 216 4 gusting 12 23.3
2019-Oct-14 19:50 210 4 gusting 12 23.3
2019-Oct-14 19:47 234 5 gusting 13 23.3
2019-Oct-14 19:41 262 5 gusting 10 23.3
2019-Oct-14 19:35 322 2 gusting 8 23.3
2019-Oct-14 19:31 234 5 gusting 13 23.3
2019-Oct-14 19:25 218 4 gusting 13 23.3
2019-Oct-14 19:21 237 4 gusting 13 23.3
2019-Oct-14 19:16 266 5 gusting 13 23.3
2019-Oct-14 19:10 291 5 gusting 13 23.3
2019-Oct-14 19:05 274 5 gusting 13 23.3
2019-Oct-14 19:01 264 6 gusting 12 23.3
2019-Oct-14 18:55 227 2 gusting 9 23.3
2019-Oct-14 18:50 298 6 gusting 9 23.3
2019-Oct-14 18:46 220 2 gusting 12 22.8
2019-Oct-14 18:40 291 5 gusting 12 22.8
2019-Oct-14 18:35 256 3 gusting 12 22.8
2019-Oct-14 18:32 263 2 gusting 12 22.8
2019-Oct-14 18:25 223 4 gusting 10 22.8
2019-Oct-14 18:20 250 3 gusting 9 22.2
2019-Oct-14 18:16 312 4 gusting 9 22.2
2019-Oct-14 18:10 251 4 gusting 9 22.8
2019-Oct-14 18:05 262 3 gusting 10 22.8
2019-Oct-14 18:01 300 5 gusting 10 22.8
2019-Oct-14 17:55 267 2 gusting 8 22.8
2019-Oct-14 17:50 288 4 gusting 8 22.2
2019-Oct-14 17:47 240 3 gusting 6 22.2
2019-Oct-14 17:40 287 1 gusting 10 22.2
2019-Oct-14 17:35 247 3 gusting 10 21.7
2019-Oct-14 17:30 188 4 gusting 10 21.7
2019-Oct-14 17:25 204 2 gusting 8 21.7
2019-Oct-14 17:20 291 1 gusting 10 21.1
2019-Oct-14 17:16 231 3 gusting 8 21.1
2019-Oct-14 17:10 312 4 gusting 9 20.6
2019-Oct-14 17:05 308 3 gusting 10 21.1
2019-Oct-14 17:00 257 4 gusting 11 20.6
2019-Oct-14 16:55 281 5 gusting 11 20.6
2019-Oct-14 16:50 267 2 gusting 8 20.6
2019-Oct-14 16:45 241 2 gusting 8 20.6
2019-Oct-14 16:40 314 1 gusting 9 20.6
2019-Oct-14 16:35 253 3 gusting 9 20.6
2019-Oct-14 16:30 215 1 gusting 8 20.0
2019-Oct-14 16:25 291 2 gusting 9 20.0
2019-Oct-14 16:20 220 3 gusting 9 20.0
2019-Oct-14 16:15 339 5 gusting 8 20.6
2019-Oct-14 16:10 278 3 gusting 8 20.6
2019-Oct-14 16:05 267 1 gusting 9 20.0
2019-Oct-14 16:00 276 1 gusting 9 20.0
2019-Oct-14 15:55 176 2 gusting 7 20.0
2019-Oct-14 15:50 264 1 gusting 7 19.4
2019-Oct-14 15:46 208 2 gusting 4 18.9
2019-Oct-14 15:40 245 1 gusting 6 18.9
2019-Oct-14 15:35 299 1 gusting 8 18.9
2019-Oct-14 15:25 312 1 gusting 5 18.9
2019-Oct-14 15:20 278 2 gusting 5 18.3
2019-Oct-14 15:10 254 1 gusting 6 18.3
2019-Oct-14 15:05 359 1 gusting 6 17.8
2019-Oct-14 14:55 265 3 gusting 7 17.2
2019-Oct-14 14:50 248 1 gusting 6 17.2
2019-Oct-14 14:45 248 1 gusting 6 17.2
2019-Oct-14 14:40 208 1 gusting 6 16.7
2019-Oct-14 14:35 242 2 gusting 7 16.7
2019-Oct-14 14:30 258 4 gusting 7 16.7
2019-Oct-14 14:25 288 2 gusting 6 16.7
2019-Oct-14 14:16 241 1 gusting 5 16.1
2019-Oct-14 14:10 255 0 gusting 3 16.1
2019-Oct-14 14:06 213 0 gusting 3 16.1
2019-Oct-14 14:01 185 0 gusting 4 16.1
2019-Oct-14 13:55 303 1 gusting 4 16.1
2019-Oct-14 13:51 234 0 gusting 4 15.6
2019-Oct-14 13:46 248 1 gusting 3 15.6
2019-Oct-14 13:40 359 1 gusting 4 15.6
2019-Oct-14 13:35 266 1 gusting 4 15.6
2019-Oct-14 13:32 299 1 gusting 6 15.6
2019-Oct-14 13:25 280 1 gusting 6 15.6
2019-Oct-14 13:20 276 3 gusting 6 15.6
2019-Oct-14 13:16 276 2 gusting 6 15.6
2019-Oct-14 13:10 310 2 gusting 5 15.6
2019-Oct-14 13:06 312 0 gusting 5 15.6
2019-Oct-14 13:01 261 1 gusting 5 15.0
2019-Oct-14 12:55 273 0 gusting 4 15.0
2019-Oct-14 12:50 296 1 gusting 4 15.0
2019-Oct-14 12:46 359 1 gusting 5 15.0
2019-Oct-14 12:40 268 1 gusting 4 15.0
2019-Oct-14 12:36 283 15.0
2019-Oct-14 12:31 278 0 gusting 4 15.0
2019-Oct-14 12:25 250 2 gusting 6 15.0
2019-Oct-14 12:20 297 2 gusting 6 15.0
2019-Oct-14 12:16 298 1 gusting 3 15.0
2019-Oct-14 12:11 296 0 gusting 6 14.4
2019-Oct-14 12:05 262 1 gusting 6 14.4
2019-Oct-14 12:02 278 1 gusting 5 14.4
2019-Oct-14 11:55 270 2 gusting 5 14.4
2019-Oct-14 11:50 255 1 gusting 3 14.4
2019-Oct-14 11:48 255 0 gusting 3 14.4
2019-Oct-14 11:40 269 0 gusting 2 14.4
2019-Oct-14 11:35 231 0 gusting 2 14.4
2019-Oct-14 11:31 232 14.4
2019-Oct-14 11:25 232 0 gusting 1 14.4
2019-Oct-14 11:20 231 14.4
2019-Oct-14 11:17 232 14.4
2019-Oct-14 11:10 233 0 gusting 1 14.4
2019-Oct-14 11:05 233 14.4
2019-Oct-14 11:01 232 14.4
2019-Oct-14 10:55 231 14.4
2019-Oct-14 10:50 231 14.4
2019-Oct-14 10:46 232 14.4
2019-Oct-14 10:40 232 14.4
2019-Oct-14 10:35 231 14.4
2019-Oct-14 10:32 232 14.4
2019-Oct-14 10:25 232 13.9
2019-Oct-14 10:20 232 13.9
2019-Oct-14 10:16 232 0 gusting 1 13.9
2019-Oct-14 10:10 258 13.9
2019-Oct-14 10:05 258 13.9
2019-Oct-14 10:01 166 13.9
2019-Oct-14 09:55 202 0 gusting 2 13.9
2019-Oct-14 09:50 212 0 gusting 2 13.3
2019-Oct-14 09:46 169 0 gusting 1 13.3
2019-Oct-14 09:40 114 13.3
2019-Oct-14 09:35 113 13.3
2019-Oct-14 09:31 114 13.3
2019-Oct-14 09:25 113 13.3
2019-Oct-14 09:20 114 13.3
2019-Oct-14 09:16 114 13.9
2019-Oct-14 09:10 113 13.9
2019-Oct-14 09:05 113 13.9
2019-Oct-14 09:01 114 14.4
2019-Oct-14 08:55 113 0 gusting 2 14.4
2019-Oct-14 08:50 112 14.4
2019-Oct-14 08:45 129 14.4
2019-Oct-14 08:40 129 0 gusting 2 14.4
2019-Oct-14 08:35 129 0 gusting 2 14.4
2019-Oct-14 08:30 145 14.4
2019-Oct-14 08:25 154 14.4
2019-Oct-14 08:20 154 14.4
2019-Oct-14 08:16 154 14.4
2019-Oct-14 08:10 154 14.4
2019-Oct-14 08:05 154 15.0
2019-Oct-14 08:02 155 15.0
2019-Oct-14 07:55 154 15.0
2019-Oct-14 07:50 276 15.0
2019-Oct-14 07:45 278 15.0
2019-Oct-14 07:40 279 15.0
2019-Oct-14 07:35 279 15.0
2019-Oct-14 07:30 280 0 gusting 1 15.0
2019-Oct-14 07:25 039 15.0
2019-Oct-14 07:20 025 0 gusting 2 15.0
2019-Oct-14 07:16 161 15.0
2019-Oct-14 07:10 161 15.0
2019-Oct-14 07:05 160 15.0
2019-Oct-14 07:00 161 15.0
2019-Oct-14 06:55 181 15.0
2019-Oct-14 06:50 181 15.0
2019-Oct-14 06:45 180 15.0
2019-Oct-14 06:40 181 15.0
2019-Oct-14 06:35 180 15.0
2019-Oct-14 06:30 181 15.0
2019-Oct-14 06:25 180 1 gusting 3 15.0
2019-Oct-14 06:20 171 15.0
2019-Oct-14 06:10 161 0 gusting 3 15.0
2019-Oct-14 06:05 152 15.0
2019-Oct-14 06:00 152 15.0
2019-Oct-14 05:55 154 15.0
2019-Oct-14 05:50 153 15.0
2019-Oct-14 05:40 153 15.0
2019-Oct-14 05:35 154 15.0
2019-Oct-14 05:25 154 15.0
2019-Oct-14 05:20 153 15.0
2019-Oct-14 05:10 154 15.0
2019-Oct-14 05:05 153 15.0
2019-Oct-14 04:55 154 15.0
2019-Oct-14 04:50 154 15.0
2019-Oct-14 04:45 154 15.0
2019-Oct-14 04:40 144 15.0
2019-Oct-14 04:35 145 15.0
2019-Oct-14 04:30 145 15.0
2019-Oct-14 04:25 145 15.0
2019-Oct-14 04:20 144 15.0
2019-Oct-14 04:15 144 15.0
2019-Oct-14 04:10 144 0 gusting 1 15.0
2019-Oct-14 04:05 144 0 gusting 1 15.0
2019-Oct-14 04:00 145 15.0
2019-Oct-14 03:55 183 0 gusting 2 15.0
2019-Oct-14 03:50 204 0 gusting 2 15.0
2019-Oct-14 03:45 206 15.0
2019-Oct-14 03:40 184 0 gusting 3 15.0
2019-Oct-14 03:35 192 1 gusting 4 15.0
2019-Oct-14 03:30 221 1 gusting 4 15.0
2019-Oct-14 03:25 158 0 gusting 5 15.0
2019-Oct-14 03:20 200 1 gusting 5 15.0
2019-Oct-14 03:15 195 1 gusting 4 15.0
2019-Oct-14 03:10 156 0 gusting 2 15.0
2019-Oct-14 03:05 173 0 gusting 2 15.0
2019-Oct-14 03:00 207 0 gusting 2 15.0
2019-Oct-14 02:55 207 15.0
2019-Oct-14 02:50 207 15.0
2019-Oct-14 02:40 193 1 gusting 6 15.0
2019-Oct-14 02:35 189 0 gusting 2 15.0
2019-Oct-14 02:30 190 0 gusting 2 15.0
2019-Oct-14 02:25 231 0 gusting 2 15.0
2019-Oct-14 02:20 168 0 gusting 2 15.0
2019-Oct-14 02:15 154 0 gusting 3 15.0
2019-Oct-14 02:10 189 0 gusting 3 15.0
2019-Oct-14 02:05 183 0 gusting 2 15.0
2019-Oct-14 02:00 186 0 gusting 2 15.0